Volkel, Netherlands

7:10 PM CEST on August 31, 2016 (GMT +0200)
Volkel Air Base

Weather History for EHVK - October, 2012

Change the Weather History Date:

Wednesday, October 24, 2012

  Actual Average Record
Temperature  
Mean Temperature 50 °F -  
Max Temperature 55 °F 49 °F 66 °F (2004)
Min Temperature 46 °F 37 °F 23 °F (2003)
Degree Days  
Heating Degree Days 14    
Moisture  
Dew Point 50 °F    
Average Humidity 96    
Maximum Humidity 100    
Minimum Humidity 88    
Precipitation  
Precipitation 0.00 in - - ()
Sea Level Pressure  
Sea Level Pressure 30.13 in    
Wind  
Wind Speed 6 mph ()    
Max Wind Speed 12 mph    
Max Gust Speed -    
Visibility 1.1 miles    
Events Fog    
Averages and records for this station are not official NWS values.
T = Trace of Precipitation, MM = Missing Value Source: Averaged Metar Reports

Daily Weather History Graph

Daily Weather History Graph

Search for Another Location

Airport or City:

Trip Planner

Search our weather history database for the weather conditions in past years. The results will help you decide how hot, cold, wet, or windy it might be!

Date:

Astronomy

Oct. 24, 2012 Rise Set
Actual Time 8:17 AM CEST 6:24 PM CEST
Civil Twilight 7:42 AM CEST 6:58 PM CEST
Nautical Twilight 7:03 AM CEST 7:37 PM CEST
Astronomical Twilight 6:25 AM CEST 8:16 PM CEST
Moon 4:02 PM CEST (10/24) 2:20 AM CEST (10/24)
Length of Visible Light 11h 15m
Length of Day
10h 06m
Waxing Gibbous, 73% of the Moon is Illuminated
Oct 24
Waxing Gibbous
Oct 29
Full
Nov 7
Last Quarter
Nov 13
New
Nov 20
First Quarter

Hourly Weather History & Observations

Time (CEST) Temp. Windchill Dew Point Humidity Pressure Visibility Wind Dir Wind Speed Gust Speed Precip Events Conditions
12:25 AM 51.8 °F - 51.8 °F 100% 30.21 in 1.4 mi ENE 8.1 mph - N/A   Mist
12:55 AM 51.8 °F - 50.0 °F 94% 30.21 in 1.4 mi ENE 8.1 mph - N/A   Mist
1:25 AM 51.8 °F - 50.0 °F 94% 30.21 in 1.5 mi ENE 6.9 mph - N/A   Overcast
1:55 AM 51.8 °F - 50.0 °F 94% 30.18 in 1.5 mi ENE 6.9 mph - N/A   Overcast
2:25 AM 50.0 °F - 50.0 °F 100% 30.18 in 1.5 mi ENE 5.8 mph - N/A   Scattered Clouds
2:55 AM 51.8 °F - 50.0 °F 94% 30.18 in 1.4 mi East 4.6 mph - N/A   Mostly Cloudy
3:25 AM 51.8 °F - 50.0 °F 94% 30.18 in 1.3 mi ENE 8.1 mph - N/A   Mostly Cloudy
3:55 AM 51.8 °F - 50.0 °F 94% 30.18 in 1.6 mi East 8.1 mph - N/A   Mostly Cloudy
4:25 AM 50.0 °F - 48.2 °F 94% 30.18 in 1.4 mi East 3.5 mph - N/A   Partly Cloudy
4:55 AM 48.2 °F - 48.2 °F 100% 30.15 in 1.2 mi East 2.3 mph - N/A   Overcast
5:25 AM 50.0 °F - 48.2 °F 94% 30.15 in 1.4 mi East 2.3 mph - N/A   Overcast
5:55 AM 50.0 °F - 48.2 °F 94% 30.15 in 1.2 mi ESE 4.6 mph - N/A   Mostly Cloudy
6:25 AM 50.0 °F - 50.0 °F 100% 30.12 in 1.2 mi East 4.6 mph - N/A   Overcast
6:55 AM 48.2 °F - 48.2 °F 100% 30.12 in 1.1 mi ENE 4.6 mph - N/A   Mostly Cloudy
7:08 AM 50.0 °F - 48.2 °F 94% 30.15 in 1.1 mi NNE 5.8 mph - N/A   Partly Cloudy
7:14 AM 50.0 °F - 48.2 °F 94% 30.15 in 1.2 mi NNE 5.8 mph - N/A   Mostly Cloudy
7:25 AM 48.2 °F - 48.2 °F 100% 30.15 in 1.1 mi NE 4.6 mph - N/A   Overcast
7:31 AM 48.2 °F - 48.2 °F 100% 30.15 in 0.9 mi ENE 4.6 mph - N/A   Scattered Clouds
7:35 AM 48.2 °F - 48.2 °F 100% 30.15 in 1.1 mi ENE 4.6 mph - N/A   Partly Cloudy
7:48 AM 48.2 °F - 46.4 °F 93% 30.12 in 1.1 mi East 3.5 mph - N/A   Mist
7:55 AM 46.4 °F 44.3 °F 46.4 °F 100% 30.12 in 1.1 mi East 4.6 mph - N/A   Mist
7:58 AM 48.2 °F - 48.2 °F 100% 30.12 in 0.9 mi ESE 4.6 mph - N/A   Mist
8:03 AM 48.2 °F - 48.2 °F 100% 30.12 in 1.0 mi ESE 3.5 mph - N/A   Mist
8:06 AM 48.2 °F - 48.2 °F 100% 30.12 in 0.9 mi ESE 3.5 mph - N/A   Partly Cloudy
8:25 AM 48.2 °F - 48.2 °F 100% 30.15 in 0.7 mi NNE 6.9 mph - N/A   Overcast
8:27 AM 48.2 °F - 48.2 °F 100% 30.15 in 0.7 mi NNE 6.9 mph - N/A   Overcast
8:31 AM 48.2 °F - 48.2 °F 100% 30.15 in 0.8 mi NNE 6.9 mph - N/A   Mostly Cloudy
8:32 AM 48.2 °F - 48.2 °F 100% 30.15 in 0.8 mi NNE 6.9 mph - N/A   Mostly Cloudy
8:38 AM 50.0 °F - 48.2 °F 94% 30.15 in 0.8 mi NE 8.1 mph - N/A   Partly Cloudy
8:41 AM 50.0 °F - 50.0 °F 100% 30.15 in 0.8 mi NE 8.1 mph - N/A   Scattered Clouds
8:45 AM 50.0 °F - 50.0 °F 100% 30.15 in 0.8 mi NE 9.2 mph - N/A   Scattered Clouds
8:48 AM 50.0 °F - 50.0 °F 100% 30.15 in 0.8 mi NE 9.2 mph - N/A   Mostly Cloudy
8:55 AM 50.0 °F - 50.0 °F 100% 30.15 in 0.8 mi NE 8.1 mph - N/A   Mostly Cloudy
8:58 AM 50.0 °F - 50.0 °F 100% 30.15 in 0.7 mi NE 8.1 mph - N/A   Mostly Cloudy
9:21 AM 50.0 °F - 48.2 °F 94% 30.15 in 0.8 mi ENE 5.8 mph - N/A   Partly Cloudy
9:25 AM 50.0 °F - 48.2 °F 94% 30.15 in 0.7 mi ENE 5.8 mph - N/A   Partly Cloudy
9:36 AM 50.0 °F - 50.0 °F 100% 30.15 in 0.7 mi ENE 5.8 mph - N/A   Mostly Cloudy
9:44 AM 50.0 °F - 50.0 °F 100% 30.15 in 0.7 mi NE 6.9 mph - N/A   Overcast
9:45 AM 50.0 °F - 50.0 °F 100% 30.15 in 0.7 mi NE 8.1 mph - N/A   Overcast
9:48 AM 50.0 °F - 50.0 °F 100% 30.15 in 0.7 mi NE 8.1 mph - N/A   Overcast
9:55 AM 50.0 °F - 50.0 °F 100% 30.15 in 0.7 mi NE 6.9 mph - N/A   Overcast
10:03 AM 50.0 °F - 50.0 °F 100% 30.15 in 0.7 mi ENE 8.1 mph - N/A   Overcast
10:05 AM 50.0 °F - 50.0 °F 100% 30.15 in 0.6 mi ENE 8.1 mph - N/A   Overcast
10:13 AM 50.0 °F - 50.0 °F 100% 30.15 in 0.6 mi NE 8.1 mph - N/A Fog Fog
10:15 AM 50.0 °F - 50.0 °F 100% 30.15 in 0.7 mi NE 8.1 mph - N/A   Mostly Cloudy
10:25 AM 51.8 °F - 50.0 °F 94% 30.15 in 0.7 mi ENE 9.2 mph - N/A   Overcast
10:34 AM 50.0 °F - 50.0 °F 100% 30.15 in 0.7 mi NE 9.2 mph - N/A   Overcast
10:41 AM 51.8 °F - 50.0 °F 94% 30.15 in 0.7 mi ENE 10.4 mph - N/A   Overcast
10:55 AM 51.8 °F - 50.0 °F 94% 30.15 in 0.6 mi ENE 9.2 mph - N/A Fog Fog
10:56 AM 51.8 °F - 50.0 °F 94% 30.15 in 0.7 mi ENE 8.1 mph - N/A   Overcast
11:02 AM 51.8 °F - 50.0 °F 94% 30.15 in 0.7 mi ENE 9.2 mph - N/A   Overcast
11:25 AM 51.8 °F - 50.0 °F 94% 30.15 in 0.7 mi NE 6.9 mph - N/A   Overcast
11:30 AM 51.8 °F - 50.0 °F 94% 30.15 in 0.7 mi ENE 6.9 mph - N/A   Overcast
11:54 AM 51.8 °F - 50.0 °F 94% 30.15 in 1.0 mi ENE 8.1 mph - N/A   Overcast
11:55 AM 51.8 °F - 50.0 °F 94% 30.15 in 0.9 mi ENE 8.1 mph - N/A   Overcast
11:58 AM 51.8 °F - 50.0 °F 94% 30.15 in 1.0 mi ENE 8.1 mph - N/A   Overcast
12:09 PM 51.8 °F - 50.0 °F 94% 30.15 in 1.1 mi ENE 8.1 mph - N/A   Overcast
12:25 PM 51.8 °F - 51.8 °F 100% 30.18 in 1.2 mi NE 6.9 mph - N/A   Overcast
12:32 PM 51.8 °F - 50.0 °F 94% 30.18 in 1.3 mi ENE 6.9 mph - N/A   Overcast
12:55 PM 53.6 °F - 50.0 °F 88% 30.15 in 1.5 mi ENE 6.9 mph - N/A   Overcast
1:25 PM 53.6 °F - 51.8 °F 94% 30.12 in 1.5 mi East 4.6 mph - N/A   Overcast
1:35 PM 53.6 °F - 51.8 °F 94% 30.12 in 1.7 mi ENE 6.9 mph - N/A   Overcast
1:55 PM 53.6 °F - 51.8 °F 94% 30.12 in - East 5.8 mph - N/A   Overcast
2:12 PM 55.4 °F - 53.6 °F 94% 30.12 in - East 5.8 mph - N/A   Overcast
2:25 PM 55.4 °F - 51.8 °F 88% 30.12 in - ENE 5.8 mph - N/A   Overcast
2:44 PM 55.4 °F - 51.8 °F 88% 30.12 in - NE 6.9 mph - N/A   Overcast
2:48 PM 55.4 °F - 51.8 °F 88% 30.12 in - NE 8.1 mph - N/A   Overcast
2:55 PM 55.4 °F - 51.8 °F 88% 30.12 in 2.2 mi NNE 6.9 mph - N/A   Overcast
2:59 PM 55.4 °F - 51.8 °F 88% 30.12 in - North 6.9 mph - N/A   Overcast
3:13 PM 55.4 °F - 51.8 °F 88% 30.12 in 2.2 mi NNE 6.9 mph - N/A   Overcast
3:20 PM 55.4 °F - 51.8 °F 88% 30.12 in - NNE 6.9 mph - N/A   Overcast
3:25 PM 55.4 °F - 51.8 °F 88% 30.12 in - NE 8.1 mph - N/A   Overcast
3:33 PM 53.6 °F - 51.8 °F 94% 30.12 in 2.2 mi NE 6.9 mph - N/A   Overcast
3:40 PM 53.6 °F - 51.8 °F 94% 30.12 in 2.2 mi NE 6.9 mph - N/A   Overcast
3:55 PM 53.6 °F - 51.8 °F 94% 30.12 in - NE 6.9 mph - N/A   Overcast
4:15 PM 53.6 °F - 51.8 °F 94% 30.12 in 1.8 mi ENE 8.1 mph - N/A   Overcast
4:25 PM 53.6 °F - 51.8 °F 94% 30.12 in 1.8 mi NE 8.1 mph - N/A   Overcast
4:55 PM 53.6 °F - 51.8 °F 94% 30.09 in 1.4 mi ENE 8.1 mph - N/A   Overcast
5:25 PM 53.6 °F - 51.8 °F 94% 30.09 in 1.4 mi NE 8.1 mph - N/A   Overcast
5:55 PM 51.8 °F - 51.8 °F 100% 30.09 in 1.4 mi NE 5.8 mph - N/A   Mostly Cloudy
6:01 PM 51.8 °F - 51.8 °F 100% 30.09 in 1.4 mi NNE 5.8 mph - N/A   Mostly Cloudy
6:05 PM 51.8 °F - 51.8 °F 100% 30.09 in 1.3 mi NNE 5.8 mph - N/A   Mostly Cloudy
6:20 PM 51.8 °F - 51.8 °F 100% 30.09 in 1.2 mi NNE 5.8 mph - N/A   Overcast
6:25 PM 51.8 °F - 51.8 °F 100% 30.09 in 1.3 mi NNE 4.6 mph - N/A   Overcast
6:55 PM 51.8 °F - 51.8 °F 100% 30.09 in 1.6 mi ENE 9.2 mph - N/A   Overcast
7:25 PM 51.8 °F - 51.8 °F 100% 30.09 in 1.7 mi ENE 10.4 mph - N/A   Mostly Cloudy
7:55 PM 51.8 °F - 51.8 °F 100% 30.09 in - ENE 9.2 mph - N/A   Overcast
8:25 PM 51.8 °F - 51.8 °F 100% 30.09 in - ENE 8.1 mph - N/A   Overcast
8:55 PM 51.8 °F - 51.8 °F 100% 30.09 in 1.8 mi ENE 6.9 mph - N/A   Overcast
9:25 PM 51.8 °F - 51.8 °F 100% 30.09 in 1.9 mi ENE 8.1 mph - N/A   Overcast
9:49 PM 51.8 °F - 50.0 °F 94% 30.09 in - ENE 6.9 mph - N/A   Overcast
9:55 PM 51.8 °F - 50.0 °F 94% 30.09 in - East 8.1 mph - N/A   Overcast
10:25 PM 51.8 °F - 50.0 °F 94% 30.09 in - ENE 11.5 mph - N/A   Overcast
10:55 PM 51.8 °F - 50.0 °F 94% 30.06 in - ENE 9.2 mph - N/A   Overcast
11:25 PM 51.8 °F - 50.0 °F 94% 30.09 in - ENE 9.2 mph - N/A   Overcast
11:55 PM 51.8 °F - 50.0 °F 94% 30.09 in - ENE 6.9 mph - N/A   Overcast